Regional Weather Roundup
Issued by NWS

Home | Current Version | Previous Version | Graphics & Text | Print | Product List | Glossary On
Versions: 1 2 3 4 5 6 7 8 9 10 11 12 13 14 15 16 17 18 19 20 21 22 23 24 25 26 27 28 29 30 31 32 33 34 35 36 37 38 39 40 41 42 43 44 45 46 47 48 49 50
000
ASUS43 KFSD 020002
RWRSD

WEATHER ROUNDUP FOR SOUTH DAKOTA
NATIONAL WEATHER SERVICE SIOUX FALLS SD
600 PM CST SUN MAR 01 2015

NOTE: "FAIR" INDICATES FEW OR NO CLOUDS BELOW 12,000 FEET WITH NO
SIGNIFICANT WEATHER AND/OR OBSTRUCTIONS TO VISIBILITY.


SDZ001>005-009-010-012>017-020100-
NORTHWEST AND NORTH CENTRAL SOUTH DAKOTA

CITY           SKY/WX    TMP DP  RH WIND       PRES   REMARKS
BUFFALO          N/A     24   9  52 NW15      30.20S WCI  11
FAITH            N/A     26   8  46 NW18      30.29S WCI  13
MOBRIDGE       CLOUDY    26  14  60 NW10      30.31R WCI  16
$$

SDZ012>016-024>037-041>051-057-063-072>074-020100-
SOUTHWEST AND SOUTH CENTRAL SOUTH DAKOTA

CITY           SKY/WX    TMP DP  RH WIND       PRES   REMARKS
RAPID CTY ARPT CLEAR     24  12  60 N16       30.26R WCI  11
PIERRE         MOCLDY    31   9  39 NW13      30.33R WCI  21
CUSTER         CLEAR     23  -9  24 W6        30.13F WCI  16
ELLSWORTH AFB  CLEAR     25  11  54 N18       30.24F WCI  12
PHILIP         PTCLDY    30   9  41 N15       30.33R WCI  19
PINE RIDGE     CLEAR     31   7  36 NE8       30.26R WCI  23
WINNER         FAIR      33   4  29 NW16      30.34R WCI  23
$$

SDZ004>011-016>023-039-040-020100-
NORTHEAST SOUTH DAKOTA

CITY           SKY/WX    TMP DP  RH WIND       PRES   REMARKS
ABERDEEN       CLEAR     24  14  65 NW15      30.35R WCI  11
WATERTOWN      MOCLDY    21  14  74 NW14      30.30R WCI   8
SISSETON         N/A     22  11  62 NW18      30.30R WCI   7
$$

SDZ017-020-022-023-036>040-048>070-020100-
SOUTHEAST SOUTH DAKOTA

CITY           SKY/WX    TMP DP  RH WIND       PRES   REMARKS
SIOUX FALLS    PTCLDY    27  15  61 NW13      30.34R WCI  16
HURON          CLEAR     26  16  65 N10       30.36R WCI  16
MITCHELL       PTCLDY    29  13  51 NW10      30.38R WCI  20
YANKTON        PTCLDY    34   7  32 NW15      30.37R WCI  24
$$

ABBREVIATIONS USED IN REMARKS
   TC - TEMPERATURE IN CELSIUS
  WCI - WIND CHILL INDEX
   HX - HEAT INDEX
  VSB - VISIBILITY




USA.gov is the U.S. government's official web portal to all federal, state and local government web resources and services.